カタログに戻る

SL-14 DEB

運用中PO
NORAD 19178·DEBRIS·🇷🇺 Russia

打ち上げ Oct 26, 1978 から Plesetsk Cosmodrome

Loading…

次のパス (今後24時間)

TLE

最新Source: Space-Track

元期: Sep 13, 2026, 07:46 UTC

1 19178U 78100U   26256.32369466 -.00000084  00000-0 -91998-3 0  9995
2 19178  82.1164   4.1543 0036863 209.5637 176.2329 12.17903252696637

AllMySatでSL-14 DEBをリアルタイム追跡

Download on the App Store